sat.trackr.live / text

‹ back to catalog

ONEWEB-0184

NORAD 48211 · 2021-031B

PAYLOAD ACTIVE UNKNOWN

§ Identity

Operator
Country
UK
Launch date
2021-04-25
Launch site
VOSTO
Launch vehicle
Mass (kg)
RCS (m²)

Purposes: comms

External: N2YO · Heavens-Above · Gunter

§ Orbital elements

Epoch: 2026-09-19T09:16:18.811776Z

Period
109.55 min
Inclination
87.8897°
Eccentricity
0.0001851
Mean motion
13.14504244 rev/d
Perigee alt
1,204.4 km
Apogee alt
1,207.2 km
Semi-major
7,583.9 km
B*
3.7817e-4
RAAN
270.9162°
Arg perigee
69.4357°
Mean anomaly
290.6972°
Rev number
26,066

§ Raw data

ONEWEB-01841 48211U 21031B   26262.38632884  .00000153  00000+0  37817-3 0  99902 48211  87.8897 270.9162 0001851  69.4357 290.6972 13.14504244260664

JSON: /api/v1/satellites/48211 · /tle

For live sub-satellite position, see the globe view (requires WebGL).

§ Visibility from observer

Set your observer location to see the next 7 days of passes ≥ 10°. The values pass through the URL so the page stays shareable.

No JS? Fill the form by hand. The geolocation button needs JavaScript.